Time,TemperatureF,DewpointF,PressureIn,WindDirection,WindDirectionDegrees,WindSpeedMPH,WindSpeedGustMPH,Humidity,HourlyPrecipIn,Conditions,Clouds,dailyrainin,SoftwareType,DateUTC
2017-03-28 00:03:00,66.3,61.0,30.03,ENE,75,0.0,0.0,83,0.00,,---,0.00,VWS V15.00,2017-03-28 04:03:00,
2017-03-28 00:08:00,66.1,60.8,30.02,ENE,75,0.0,0.0,83,0.00,,---,0.00,VWS V15.00,2017-03-28 04:08:00,
2017-03-28 00:13:00,66.1,61.1,30.02,ENE,75,0.0,0.0,84,0.00,,---,0.00,VWS V15.00,2017-03-28 04:13:00,
2017-03-28 00:18:00,66.1,61.1,30.02,ENE,75,0.0,0.0,84,0.00,,---,0.00,VWS V15.00,2017-03-28 04:18:00,
2017-03-28 00:23:00,66.1,61.1,30.02,ENE,75,0.0,0.0,84,0.00,,---,0.00,VWS V15.00,2017-03-28 04:23:00,
2017-03-28 00:28:00,66.1,61.1,30.02,ENE,75,0.0,0.0,84,0.00,,---,0.00,VWS V15.00,2017-03-28 04:28:00,
2017-03-28 00:33:00,66.0,61.0,30.02,ENE,75,0.0,0.0,84,0.00,,---,0.00,VWS V15.00,2017-03-28 04:33:00,
2017-03-28 00:38:00,65.9,60.9,30.02,ENE,75,0.0,0.0,84,0.00,,---,0.00,VWS V15.00,2017-03-28 04:38:00,
2017-03-28 00:43:00,65.7,61.1,30.01,ENE,75,0.0,0.0,85,0.00,,---,0.00,VWS V15.00,2017-03-28 04:43:00,
2017-03-28 00:48:00,65.6,61.0,30.01,ENE,75,0.0,0.0,85,0.00,,---,0.00,VWS V15.00,2017-03-28 04:48:00,
2017-03-28 00:53:00,65.6,61.0,30.01,ENE,75,0.0,0.0,85,0.00,,---,0.00,VWS V15.00,2017-03-28 04:53:00,
2017-03-28 00:58:00,65.5,61.2,30.01,ENE,75,0.0,0.0,86,0.00,,---,0.00,VWS V15.00,2017-03-28 04:58:00,
2017-03-28 01:03:00,65.4,61.1,30.01,ENE,75,0.0,0.0,86,0.00,,---,0.00,VWS V15.00,2017-03-28 05:03:00,
2017-03-28 01:08:00,65.2,60.9,30.01,ENE,75,0.0,0.0,86,0.00,,---,0.00,VWS V15.00,2017-03-28 05:08:00,
2017-03-28 01:13:00,65.1,60.8,30.01,ENE,75,0.0,0.0,86,0.00,,---,0.00,VWS V15.00,2017-03-28 05:13:00,
2017-03-28 01:18:00,64.9,60.9,30.01,ENE,75,0.0,0.0,87,0.00,,---,0.00,VWS V15.00,2017-03-28 05:18:00,
2017-03-28 01:23:00,64.8,60.8,30.01,ENE,75,0.0,0.0,87,0.00,,---,0.00,VWS V15.00,2017-03-28 05:23:00,
2017-03-28 01:28:00,64.6,60.7,30.01,ENE,75,0.0,0.0,87,0.00,,---,0.00,VWS V15.00,2017-03-28 05:28:00,
2017-03-28 01:33:00,64.4,60.8,30.01,ENE,75,0.0,0.0,88,0.00,,---,0.00,VWS V15.00,2017-03-28 05:33:00,
2017-03-28 01:38:00,64.2,60.6,30.01,ENE,75,0.0,0.0,88,0.00,,---,0.00,VWS V15.00,2017-03-28 05:38:00,
2017-03-28 01:43:00,64.0,60.4,30.01,ENE,75,0.0,0.0,88,0.00,,---,0.00,VWS V15.00,2017-03-28 05:43:00,
2017-03-28 01:48:00,63.8,60.5,30.01,ENE,75,0.0,0.0,89,0.00,,---,0.00,VWS V15.00,2017-03-28 05:48:00,
2017-03-28 01:53:00,63.7,60.4,30.01,ENE,75,0.0,0.0,89,0.00,,---,0.00,VWS V15.00,2017-03-28 05:53:00,
2017-03-28 01:58:00,63.5,60.2,30.01,ENE,75,0.0,0.0,89,0.00,,---,0.00,VWS V15.00,2017-03-28 05:58:00,
2017-03-28 02:03:00,63.4,60.1,30.01,ENE,75,0.0,0.0,89,0.00,,---,0.00,VWS V15.00,2017-03-28 06:03:00,
2017-03-28 02:08:00,63.3,60.0,30.01,ENE,75,0.0,0.0,89,0.00,,---,0.00,VWS V15.00,2017-03-28 06:08:00,
2017-03-28 02:13:00,63.3,60.3,30.01,ENE,75,0.0,0.0,90,0.00,,---,0.00,VWS V15.00,2017-03-28 06:13:00,
2017-03-28 02:18:00,63.2,60.2,30.01,ENE,75,0.0,0.0,90,0.00,,---,0.00,VWS V15.00,2017-03-28 06:18:00,
2017-03-28 02:23:00,63.1,60.1,30.01,ENE,75,0.0,0.0,90,0.00,,---,0.00,VWS V15.00,2017-03-28 06:23:00,
2017-03-28 02:28:00,63.0,60.3,30.01,ENE,75,0.0,0.0,91,0.00,,---,0.00,VWS V15.00,2017-03-28 06:28:00,
2017-03-28 02:33:00,62.9,60.2,30.00,ENE,75,0.0,0.0,91,0.00,,---,0.00,VWS V15.00,2017-03-28 06:33:00,
2017-03-28 02:38:00,62.8,60.1,30.00,ENE,75,0.0,0.0,91,0.00,,---,0.00,VWS V15.00,2017-03-28 06:38:00,
2017-03-28 02:39:00,62.7,60.0,30.01,ENE,75,0.0,0.0,91,0.00,,---,0.00,VWS V15.00,2017-03-28 06:39:00,
2017-03-28 02:44:00,62.7,60.0,30.00,ENE,75,0.0,0.0,91,0.00,,---,0.00,VWS V15.00,2017-03-28 06:44:00,
2017-03-28 02:49:00,62.6,59.9,30.00,ENE,75,0.0,0.0,91,0.00,,---,0.00,VWS V15.00,2017-03-28 06:49:00,
2017-03-28 02:54:00,62.4,59.7,30.00,ENE,75,0.0,0.0,91,0.00,,---,0.00,VWS V15.00,2017-03-28 06:54:00,
2017-03-28 02:59:00,62.3,60.0,30.00,ENE,75,0.0,0.0,92,0.00,,---,0.00,VWS V15.00,2017-03-28 06:59:00,
2017-03-28 03:04:00,62.2,59.8,30.00,ENE,75,0.0,0.0,92,0.00,,---,0.00,VWS V15.00,2017-03-28 07:04:00,
2017-03-28 03:09:00,62.2,60.2,30.00,ENE,75,0.0,0.0,93,0.00,,---,0.00,VWS V15.00,2017-03-28 07:09:00,
2017-03-28 03:14:00,62.1,60.1,30.00,ENE,75,0.0,0.0,93,0.00,,---,0.00,VWS V15.00,2017-03-28 07:14:00,
2017-03-28 03:19:00,62.1,60.1,30.00,ENE,75,0.0,0.0,93,0.00,,---,0.00,VWS V15.00,2017-03-28 07:19:00,
2017-03-28 03:24:00,62.0,60.0,30.00,ENE,75,0.0,0.0,93,0.00,,---,0.00,VWS V15.00,2017-03-28 07:24:00,
2017-03-28 03:29:00,61.9,59.9,30.00,ENE,75,0.0,0.0,93,0.00,,---,0.00,VWS V15.00,2017-03-28 07:29:00,
2017-03-28 03:34:00,61.8,60.1,29.99,ENE,75,0.0,0.0,94,0.00,,---,0.00,VWS V15.00,2017-03-28 07:34:00,
2017-03-28 03:39:00,61.8,60.1,29.99,ENE,75,0.0,0.0,94,0.00,,---,0.00,VWS V15.00,2017-03-28 07:39:00,
2017-03-28 03:44:00,61.8,60.1,29.99,ENE,75,0.0,0.0,94,0.00,,---,0.00,VWS V15.00,2017-03-28 07:44:00,
2017-03-28 03:49:00,61.8,60.1,29.99,ENE,75,0.0,0.0,94,0.00,,---,0.00,VWS V15.00,2017-03-28 07:49:00,
2017-03-28 03:54:00,61.8,60.4,29.99,ENE,75,0.0,0.0,95,0.00,,---,0.00,VWS V15.00,2017-03-28 07:54:00,
2017-03-28 03:59:00,61.9,60.2,29.99,ENE,75,0.0,0.0,94,0.00,,---,0.00,VWS V15.00,2017-03-28 07:59:00,
2017-03-28 04:04:00,62.0,60.3,29.99,ENE,75,0.0,0.0,94,0.00,,---,0.00,VWS V15.00,2017-03-28 08:04:00,
2017-03-28 04:09:00,61.9,60.2,29.99,ENE,75,0.0,0.0,94,0.00,,---,0.00,VWS V15.00,2017-03-28 08:09:00,
2017-03-28 04:14:00,61.9,60.2,29.99,ENE,75,0.0,0.0,94,0.00,,---,0.00,VWS V15.00,2017-03-28 08:14:00,
2017-03-28 04:19:00,61.8,60.1,29.99,ENE,75,0.0,0.0,94,0.00,,---,0.00,VWS V15.00,2017-03-28 08:19:00,
2017-03-28 04:24:00,61.7,60.0,29.99,ENE,75,0.0,0.0,94,0.00,,---,0.00,VWS V15.00,2017-03-28 08:24:00,
2017-03-28 04:29:00,61.7,60.3,29.99,ENE,75,0.0,0.0,95,0.00,,---,0.00,VWS V15.00,2017-03-28 08:29:00,
2017-03-28 04:34:00,61.6,60.2,29.99,ENE,75,0.0,0.0,95,0.00,,---,0.00,VWS V15.00,2017-03-28 08:34:00,
2017-03-28 04:39:00,61.6,60.2,29.98,ENE,75,0.0,0.0,95,0.00,,---,0.00,VWS V15.00,2017-03-28 08:39:00,
2017-03-28 04:44:00,61.5,60.1,29.99,ENE,75,0.0,0.0,95,0.00,,---,0.00,VWS V15.00,2017-03-28 08:44:00,
2017-03-28 04:49:00,61.6,60.2,29.99,ENE,75,0.0,0.0,95,0.00,,---,0.00,VWS V15.00,2017-03-28 08:49:00,
2017-03-28 04:54:00,61.5,60.1,29.99,ENE,75,0.0,0.0,95,0.00,,---,0.00,VWS V15.00,2017-03-28 08:54:00,
2017-03-28 04:59:00,61.4,60.0,29.99,ENE,75,0.0,0.0,95,0.00,,---,0.00,VWS V15.00,2017-03-28 08:59:00,
2017-03-28 05:04:00,61.4,60.0,29.99,ENE,75,0.0,0.0,95,0.00,,---,0.00,VWS V15.00,2017-03-28 09:04:00,
2017-03-28 05:09:00,61.3,59.9,29.99,ENE,75,0.0,0.0,95,0.00,,---,0.00,VWS V15.00,2017-03-28 09:09:00,
2017-03-28 05:14:00,61.3,59.9,29.99,ENE,75,0.0,0.0,95,0.00,,---,0.00,VWS V15.00,2017-03-28 09:14:00,
2017-03-28 05:19:00,61.2,59.8,29.99,ENE,75,0.0,0.0,95,0.00,,---,0.00,VWS V15.00,2017-03-28 09:19:00,
2017-03-28 05:24:00,61.2,59.8,29.99,ENE,75,0.0,0.0,95,0.00,,---,0.00,VWS V15.00,2017-03-28 09:24:00,
2017-03-28 05:29:00,61.2,60.0,29.99,ENE,75,0.0,0.0,96,0.00,,---,0.00,VWS V15.00,2017-03-28 09:29:00,
2017-03-28 05:34:00,61.2,60.0,29.99,ENE,75,0.0,0.0,96,0.00,,---,0.00,VWS V15.00,2017-03-28 09:34:00,
2017-03-28 05:39:00,61.2,60.0,29.99,ENE,75,0.0,0.0,96,0.00,,---,0.00,VWS V15.00,2017-03-28 09:39:00,
2017-03-28 05:44:00,61.2,60.0,29.99,ENE,75,0.0,0.0,96,0.00,,---,0.00,VWS V15.00,2017-03-28 09:44:00,
2017-03-28 05:49:00,61.2,60.0,30.00,ENE,75,0.0,0.0,96,0.00,,---,0.00,VWS V15.00,2017-03-28 09:49:00,
2017-03-28 05:54:00,61.3,60.2,30.00,ENE,75,0.0,0.0,96,0.00,,---,0.00,VWS V15.00,2017-03-28 09:54:00,
2017-03-28 05:59:00,61.3,60.2,30.00,ENE,75,0.0,0.0,96,0.00,,---,0.00,VWS V15.00,2017-03-28 09:59:00,
2017-03-28 06:04:00,61.3,60.2,30.00,ENE,75,0.0,0.0,96,0.00,,---,0.00,VWS V15.00,2017-03-28 10:04:00,
2017-03-28 06:09:00,61.3,60.2,29.99,ENE,75,0.0,0.0,96,0.00,,---,0.00,VWS V15.00,2017-03-28 10:09:00,